Tracking 28793 objects as of 21-Apr-2024
HD Live streaming from Space Station
objects crossing your sky now

STARLINK-4453

Track STARLINK-4453 now!
10-day predictions
STARLINK-4453 is classified as:


NORAD ID: 53497
Int'l Code: 2022-099AJ
Perigee: 568.8 km
Apogee: 571.5 km
Inclination: 97.7 °
Period: 95.9 minutes
Semi major axis: 6941 km
RCS: Unknown
Launch date: August 12, 2022
Source: United States (US)
Launch site: AIR FORCE WESTERN TEST RANGE (AFWTR)
Your satellite tracking list
Your tracking list is empty




NASA's NSSDC Master Catalog

Two Line Element Set (TLE):
1 53497U 22099AJ  24112.29176612 -.00003027  00000-0 -23120-3 0  9999
2 53497  97.6556 233.9478 0001988 247.7110 112.3903 15.01254264 92855
Source of the keplerian elements: AFSPC